Location: Pilipovskiye Korichintsy
(49.1833°N, 27.4667°E)
Time: 00:31:18
(UTC+00:00)

Lacrosse 5 - Pass Details

Date: 03 November 2020
Orbit: 714 x 725 km, 57.0° (Epoch: 30 November)

Event Time Altitude Azimuth Distance (km) Brightness Sun altitude
Rises 18:58:50 0° 296° (WNW) 3,120 6.0 -41.0°
Reaches altitude 10° 19:01:55 10° 278° (W) 2,196 4.9 -41.5°
Enters shadow 19:02:16 11° 274° (W) 2,111 4.8 -41.5°
